Location: Elliott Corner
(37.4627°N, 119.7746°W)
Time: 23:31:32
(UTC+00:00)

Cosmos 1934 Rocket - Pass Details

Date: 10 September 2024
Orbit: 938 x 997 km, 83.0° (Epoch: 13 October)

Event Time Altitude Azimuth Distance (km) Brightness Sun altitude
Rises 12:43:50 0° 344° (NNW) 3,690 7.0 -11.3°
Reaches altitude 10° 12:46:30 10° 337° (NNW) 2,746 6.3 -10.8°
Maximum altitude 12:52:14 38° 271° (W) 1,463 4.5 -9.7°
Drops below altitude 10° 12:58:00 10° 206° (SSW) 2,754 6.0 -8.6°
Sets 13:00:41 0° 198° (SSW) 3,701 6.7 -8.0°
